W4SKW Weather Reports


time (UTC)temp
C
wind
direction
speed
KPH
gust
KPH
rain 1hr
cm
rain 24hr
cm
rain mn
cm
humidity
%
barometer
mb
20260906122904 22 234 0.0 0.0 0.00 0.00 0.00 94 1015.0
20260906122359 22 234 0.0 0.0 0.00 0.00 0.00 94 1014.9
20260906121856 22 248 0.0 0.0 0.00 0.00 0.00 94 1015.0
20260906121352 22 250 0.0 0.0 0.00 0.00 0.00 94 1015.0
20260906120848 22 243 0.0 0.0 0.00 0.00 0.00 95 1014.8
20260906120343 22 243 0.0 0.0 0.00 0.00 0.00 95 1014.8
20260906115839 22 243 0.0 0.0 0.00 0.00 0.00 95 1014.8
20260906115334 22 243 0.0 0.0 0.00 0.00 0.00 94 1014.8
20260906114834 22 243 0.0 0.0 0.00 0.00 0.00 95 1014.7
20260906114329 22 242 0.0 0.0 0.00 0.00 0.00 95 1014.7
20260906113824 22 243 0.0 0.0 0.00 0.00 0.00 95 1014.6
20260906113323 22 243 0.0 0.0 0.00 0.00 0.00 95 1014.6
20260906112818 22 243 0.0 0.0 0.00 0.00 0.00 95 1014.5
20260906112309 22 244 0.0 0.0 0.00 0.00 0.00 95 1014.4
20260906111808 22 245 0.0 0.0 0.00 0.00 0.00 95 1014.6
20260906111302 22 243 0.0 0.0 0.00 0.00 0.00 94 1014.7
20260906110757 22 242 0.0 0.0 0.00 0.00 0.00 94 1014.6
20260906110253 22 241 0.0 0.0 0.00 0.00 0.00 94 1014.5
20260906105752 22 250 0.0 0.0 0.00 0.00 0.00 94 1014.5
20260906105248 22 244 0.0 0.0 0.00 0.00 0.00 94 1014.4
20260906104743 22 244 0.0 0.0 0.00 0.00 0.00 94 1014.3
20260906104242 22 240 0.0 0.0 0.00 0.00 0.00 94 1014.3
20260906103740 22 246 0.0 0.0 0.00 0.00 0.00 94 1014.4
20260906103234 22 246 0.0 0.0 0.00 0.00 0.00 94 1014.4
20260906102729 22 246 0.0 0.0 0.00 0.00 0.00 94 1014.4
20260906102223 22 250 0.0 0.0 0.00 0.00 0.00 94 1014.5
20260906101718 22 251 0.0 0.0 0.00 0.00 0.00 94 1014.4
20260906101213 22 249 0.0 0.0 0.00 0.00 0.00 94 1014.3
20260906100708 22 256 0.0 0.0 0.00 0.00 0.00 94 1014.4
20260906095640 22 244 0.0 0.0 0.00 0.00 0.00 94 1014.5
20260906095135 22 244 0.0 0.0 0.00 0.00 0.00 94 1014.5
20260906094634 22 250 0.0 0.0 0.00 0.00 0.00 94 1014.5
20260906094130 22 250 0.0 0.0 0.00 0.00 0.00 94 1014.6
20260906093626 22 249 0.0 0.0 0.00 0.00 0.00 94 1014.4
20260906093120 22 249 0.0 0.0 0.00 0.00 0.00 94 1014.6
20260906092615 22 246 0.0 0.0 0.00 0.00 0.00 94 1014.6
20260906092110 22 244 0.0 0.0 0.00 0.00 0.00 94 1014.6
20260906091606 22 230 0.0 0.0 0.00 0.00 0.00 94 1014.7
20260906091103 22 240 0.0 0.0 0.00 0.00 0.00 94 1014.9
20260906090557 22 240 0.0 0.0 0.00 0.00 0.00 94 1014.9
20260906090057 22 231 0.0 0.0 0.00 0.00 0.00 94 1014.6
20260906085556 22 231 0.0 0.0 0.00 0.00 0.00 94 1014.6
20260906085051 22 236 0.0 0.0 0.00 0.00 0.00 94 1014.5
20260906084545 22 236 0.0 0.0 0.00 0.00 0.00 94 1014.4
20260906084044 22 242 0.0 0.0 0.00 0.00 0.00 94 1014.4
20260906083540 22 243 0.0 0.0 0.00 0.00 0.00 94 1014.3
20260906083039 22 259 0.0 0.0 0.00 0.00 0.00 94 1014.2
20260906082535 22 243 0.0 0.0 0.00 0.00 0.00 94 1014.4
20260906082031 22 196 0.0 0.0 0.00 0.00 0.00 94 1014.3
20260906081526 22 219 0.0 0.0 0.00 0.00 0.00 94 1014.4
20260906081021 22 249 0.0 0.0 0.00 0.00 0.00 94 1014.4
20260906080512 21 80 0.0 1.6 0.00 0.00 0.00 95 1014.6
20260906080008 21 248 0.0 0.0 0.00 0.00 0.00 95 1014.4
20260906075502 21 248 0.0 0.0 0.00 0.00 0.00 95 1014.2
20260906074956 21 248 0.0 0.0 0.00 0.00 0.00 95 1014.0
20260906074451 21 248 0.0 0.0 0.00 0.00 0.00 95 1013.9
20260906073949 21 249 0.0 0.0 0.00 0.00 0.00 95 1014.0
20260906073444 21 249 0.0 0.0 0.00 0.00 0.00 95 1013.9
20260906072941 21 251 0.0 0.0 0.00 0.00 0.00 95 1013.9
20260906072436 21 257 0.0 0.0 0.00 0.00 0.00 95 1014.0
20260906071932 21 241 0.0 0.0 0.00 0.00 0.00 95 1014.1
20260906071428 21 241 0.0 0.0 0.00 0.00 0.00 95 1014.3
20260906070924 21 248 0.0 0.0 0.00 0.00 0.00 95 1014.3
20260906070419 21 248 0.0 0.0 0.00 0.00 0.00 95 1014.2
20260906065915 21 248 0.0 0.0 0.00 0.00 0.00 95 1014.4
20260906065409 21 248 0.0 0.0 0.00 0.00 0.00 95 1014.5
20260906064904 21 248 0.0 0.0 0.00 0.00 0.00 95 1014.5
20260906064401 21 248 0.0 0.0 0.00 0.00 0.00 95 1014.6
20260906063900 21 234 0.0 0.0 0.00 0.00 0.00 95 1014.6
20260906063344 21 237 0.0 0.0 0.00 0.00 0.00 95 1014.5
20260906062839 21 237 0.0 0.0 0.00 0.00 0.00 95 1014.5
20260906062338 21 237 0.0 0.0 0.00 0.00 0.00 95 1014.5
20260906061834 21 230 0.0 0.0 0.00 0.00 0.00 95 1014.4
20260906061330 21 223 0.0 0.0 0.00 0.00 0.00 95 1014.5
20260906060825 21 240 0.0 0.0 0.00 0.00 0.00 94 1014.4
20260906060323 21 245 0.0 0.0 0.00 0.00 0.00 94 1014.4
20260906055818 21 241 0.0 0.0 0.00 0.00 0.00 94 1014.4
20260906055314 21 241 0.0 0.0 0.00 0.00 0.00 94 1014.3
20260906054809 21 241 0.0 0.0 0.00 0.00 0.00 94 1014.6
20260906054303 21 240 0.0 0.0 0.00 0.00 0.00 94 1014.5
20260906053800 22 243 0.0 0.0 0.00 0.00 0.00 94 1014.3
20260906052925 22 246 0.0 0.0 0.00 0.00 0.00 94 1014.6
20260906052421 22 246 0.0 0.0 0.00 0.00 0.00 94 1014.6
20260906051918 22 246 0.0 0.0 0.00 0.00 0.00 94 1014.9
20260906051418 22 241 0.0 0.0 0.00 0.00 0.00 94 1015.0
20260906050914 22 241 0.0 0.0 0.00 0.00 0.00 94 1015.1
20260906050408 22 248 0.0 0.0 0.00 0.00 0.00 94 1014.9
20260906045908 22 248 0.0 0.0 0.00 0.00 0.00 94 1014.9
20260906045406 22 245 0.0 0.0 0.00 0.00 0.00 93 1014.9
20260906044903 22 245 0.0 0.0 0.00 0.00 0.00 93 1015.1
20260906044402 22 245 0.0 0.0 0.00 0.00 0.00 93 1014.8
20260906043858 22 245 0.0 0.0 0.00 0.00 0.00 93 1014.8
20260906042832 22 246 0.0 0.0 0.00 0.00 0.00 93 1015.2
20260906042331 22 246 0.0 0.0 0.00 0.00 0.00 93 1015.2
20260906041826 22 246 0.0 0.0 0.00 0.00 0.00 93 1015.3
20260906041322 22 246 0.0 0.0 0.00 0.00 0.00 93 1015.3
20260906040817 22 252 0.0 0.0 0.00 0.00 0.00 93 1015.3
20260906040312 22 243 0.0 0.0 0.00 0.00 0.00 93 1015.2
20260906035808 22 243 0.0 0.0 0.00 0.00 0.00 92 1015.1
20260906035306 22 243 0.0 0.0 0.00 0.00 0.00 92 1015.2
20260906034758 22 243 0.0 0.0 0.00 0.00 0.00 92 1015.4
20260906034257 22 243 0.0 0.0 0.00 0.00 0.00 92 1015.3
20260906033421 23 254 0.0 0.0 0.00 0.00 0.00 92 1015.2
20260906032917 23 254 0.0 0.0 0.00 0.00 0.00 92 1015.2
20260906032413 23 244 0.0 0.0 0.00 0.00 0.00 92 1015.3
20260906031907 23 242 0.0 0.0 0.00 0.00 0.00 92 1015.4
20260906031403 23 237 0.0 0.0 0.00 0.00 0.00 92 1015.1
20260906030858 23 238 0.0 0.0 0.00 0.00 0.00 91 1015.0
20260906030352 23 252 0.0 0.0 0.00 0.00 0.00 91 1015.0
20260906025846 23 255 0.0 0.0 0.00 0.00 0.00 91 1014.9
20260906025341 23 222 0.0 0.0 0.00 0.00 0.00 91 1015.0
20260906024840 23 248 0.0 0.0 0.00 0.00 0.00 91 1015.0
20260906024339 23 254 0.0 0.0 0.00 0.00 0.00 91 1015.0
20260906023330 23 237 0.0 0.0 0.00 0.00 0.00 90 1015.2
20260906022826 23 237 0.0 0.0 0.00 0.00 0.00 90 1015.2
20260906022321 23 244 0.0 0.0 0.00 0.00 0.00 89 1015.2
20260906021816 23 244 0.0 0.0 0.00 0.00 0.00 89 1014.8
20260906021315 23 244 0.0 0.0 0.00 0.00 0.00 89 1014.8
20260906020810 24 238 0.0 0.0 0.00 0.00 0.00 88 1015.0
20260906020309 24 238 0.0 0.0 0.00 0.00 0.00 88 1015.0
20260906015804 24 238 0.0 0.0 0.00 0.00 0.00 87 1015.1
20260906015305 24 238 0.0 0.0 0.00 0.00 0.00 87 1015.0
20260906014757 25 224 0.0 0.0 0.00 0.00 0.00 87 1015.0
20260906014253 24 222 0.0 0.0 0.00 0.00 0.00 87 1014.9
20260906013232 25 214 0.0 0.0 0.00 0.00 0.00 86 1014.6
20260906012727 25 214 0.0 0.0 0.00 0.00 0.00 86 1014.6
20260906012222 25 182 0.0 0.0 0.00 0.00 0.00 87 1014.5
20260906011717 25 233 0.0 0.0 0.00 0.00 0.00 87 1013.9
20260906011212 25 233 0.0 0.0 0.00 0.00 0.00 87 1013.9
20260906010707 25 233 0.0 0.0 0.00 0.00 0.00 87 1013.6
20260906010204 25 242 0.0 0.0 0.00 0.00 0.00 87 1013.6
20260906005703 25 242 0.0 0.0 0.00 0.00 0.00 86 1013.4
20260906005202 25 232 0.0 0.0 0.00 0.00 0.00 86 1013.5
20260906004701 25 232 0.0 0.0 0.00 0.00 0.00 86 1013.5
20260906004156 25 232 0.0 0.0 0.00 0.00 0.00 85 1013.2
20260906003617 26 221 0.0 0.0 0.00 0.00 0.00 85 1013.5
20260906003112 26 221 0.0 0.0 0.00 0.00 0.00 85 1013.5
20260906002607 26 227 0.0 0.0 0.00 0.00 0.00 85 1013.4
20260906002101 26 227 0.0 0.0 0.00 0.00 0.00 85 1013.4
20260906001556 26 215 0.0 0.0 0.00 0.00 0.00 85 1013.4
20260906001051 26 227 0.0 0.0 0.00 0.00 0.00 83 1013.7
20260906000548 26 227 0.0 0.0 0.00 0.00 0.00 83 1013.7
20260906000042 26 218 0.0 0.0 0.00 0.00 0.00 83 1013.9
20260905235536 26 211 0.0 0.0 0.00 0.00 0.00 82 1013.8
20260905235031 27 251 0.0 0.0 0.00 0.00 0.00 81 1013.7
20260905234526 27 243 0.0 0.0 0.00 0.00 0.00 80 1014.0
20260905234021 27 240 0.0 0.0 0.00 0.00 0.00 80 1013.9
20260905233516 27 255 0.0 1.6 0.00 0.00 0.00 77 1013.9
20260905233016 28 237 0.0 0.0 0.00 0.00 0.00 76 1013.8
20260905232511 28 239 0.0 0.0 0.00 0.00 0.00 75 1013.5
20260905232007 28 237 0.0 0.0 0.00 0.00 0.00 76 1013.5
20260905231502 28 210 0.0 0.0 0.00 0.00 0.00 75 1013.5
20260905230958 28 221 0.0 0.0 0.00 0.00 0.00 73 1013.4
20260905230457 29 216 0.0 0.0 0.00 0.00 0.00 71 1013.1
20260905225955 29 216 0.0 0.0 0.00 0.00 0.00 71 1013.1
20260905225450 30 178 0.0 0.0 0.00 0.00 0.00 71 1013.3
20260905224945 30 228 0.0 0.0 0.00 0.00 0.00 71 1013.3
20260905224441 30 274 0.0 1.6 0.00 0.00 0.00 68 1013.0
20260905223939 30 198 0.0 0.0 0.00 0.00 0.00 70 1013.0
20260905223438 30 198 0.0 0.0 0.00 0.00 0.00 70 1013.0
20260905222933 30 134 1.6 3.2 0.00 0.00 0.00 68 1013.1
20260905222432 30 116 0.0 0.0 0.00 0.00 0.00 70 1013.3
20260905221928 30 191 0.0 0.0 0.00 0.00 0.00 68 1012.8
20260905221424 29 194 0.0 0.0 0.00 0.00 0.00 70 1012.7
20260905220921 29 193 0.0 0.0 0.00 0.00 0.00 71 1013.4
20260905220416 29 193 0.0 0.0 0.00 0.00 0.00 71 1013.4
20260905215915 30 180 0.0 0.0 0.00 0.00 0.00 70 1013.5
20260905215411 30 209 0.0 0.0 0.00 0.00 0.00 68 1013.6
20260905214907 30 181 0.0 0.0 0.00 0.00 0.00 66 1013.6
20260905214403 30 245 0.0 0.0 0.00 0.00 0.00 64 1013.9
20260905213857 31 259 0.0 0.0 0.00 0.00 0.00 60 1013.7
20260905213354 31 259 0.0 0.0 0.00 0.00 0.00 60 1013.7
20260905212854 32 299 3.2 6.4 0.00 0.00 0.00 58 1013.6
20260905212348 33 201 0.0 0.0 0.00 0.00 0.00 58 1013.6
20260905211842 35 149 4.8 4.8 0.00 0.00 0.00 54 1013.4
20260905211337 36 247 0.0 0.0 0.00 0.00 0.00 57 1013.2
20260905210833 35 216 0.0 3.2 0.00 0.00 0.00 53 1013.1
20260905210328 35 209 0.0 0.0 0.00 0.00 0.00 57 1013.2
20260905205827 34 230 0.0 0.0 0.00 0.00 0.00 57 1013.4
20260905205322 34 195 0.0 0.0 0.00 0.00 0.00 62 1013.0
20260905204820 34 174 0.0 0.0 0.00 0.00 0.00 60 1013.1
20260905204317 35 163 1.6 1.6 0.00 0.00 0.00 60 1012.9
20260905203816 33 284 0.0 0.0 0.00 0.00 0.00 68 1013.2
20260905203312 32 236 0.0 0.0 0.00 0.00 0.00 65 1013.1
20260905202807 33 259 0.0 0.0 0.00 0.00 0.00 60 1013.2
20260905202301 33 227 0.0 0.0 0.00 0.00 0.00 59 1013.0
20260905201757 33 214 0.0 0.0 0.00 0.00 0.00 59 1013.1
20260905201252 35 212 0.0 0.0 0.00 0.00 0.00 50 1013.2
20260905200747 35 212 0.0 0.0 0.00 0.00 0.00 50 1013.2
20260905200243 36 225 0.0 0.0 0.00 0.00 0.00 47 1013.2
20260905195741 37 248 0.0 0.0 0.00 0.00 0.00 53 1013.1
20260905195236 37 264 0.0 0.0 0.00 0.00 0.00 45 1013.1
20260905194732 37 147 0.0 0.0 0.00 0.00 0.00 47 1013.3
20260905194231 36 202 0.0 1.6 0.00 0.00 0.00 46 1013.5
20260905193731 37 264 0.0 0.0 0.00 0.00 0.00 51 1013.5
20260905193226 36 239 0.0 0.0 0.00 0.00 0.00 45 1013.4
20260905192721 37 229 0.0 0.0 0.00 0.00 0.00 49 1013.6
20260905192149 37 252 0.0 0.0 0.00 0.00 0.00 45 1013.7
20260905191649 37 252 0.0 0.0 0.00 0.00 0.00 45 1013.7
20260905191146 36 207 3.2 4.8 0.00 0.00 0.00 46 1014.0
20260905190644 35 220 0.0 0.0 0.00 0.00 0.00 50 1014.1
20260905190139 36 247 0.0 0.0 0.00 0.00 0.00 51 1014.1
20260905185638 36 247 0.0 0.0 0.00 0.00 0.00 51 1014.1
20260905185138 36 254 0.0 0.0 0.00 0.00 0.00 48 1014.0
20260905184632 36 208 0.0 0.0 0.00 0.00 0.00 55 1014.0
20260905184131 35 242 3.2 3.2 0.00 0.00 0.00 50 1014.1
20260905183630 35 196 0.0 1.6 0.00 0.00 0.00 53 1014.0
20260905183126 36 237 0.0 0.0 0.00 0.00 0.00 47 1014.0
20260905182625 36 250 0.0 0.0 0.00 0.00 0.00 48 1014.3
20260905182125 36 238 0.0 0.0 0.00 0.00 0.00 45 1014.6
20260905181620 36 267 0.0 0.0 0.00 0.00 0.00 48 1014.4
20260905181119 36 257 0.0 0.0 0.00 0.00 0.00 51 1014.6
20260905180614 35 280 0.0 0.0 0.00 0.00 0.00 54 1014.7
20260905180110 35 280 0.0 0.0 0.00 0.00 0.00 54 1014.7
20260905175609 35 238 0.0 0.0 0.00 0.00 0.00 61 1014.8
20260905175104 35 53 0.0 0.0 0.00 0.00 0.00 57 1014.9
20260905174600 35 217 0.0 0.0 0.00 0.00 0.00 59 1014.9
20260905174055 35 193 0.0 0.0 0.00 0.00 0.00 51 1014.8
20260905173552 35 167 0.0 0.0 0.00 0.00 0.00 57 1015.2
20260905173047 35 167 0.0 0.0 0.00 0.00 0.00 57 1015.2
20260905172545 35 167 0.0 0.0 0.00 0.00 0.00 57 1015.2
20260905172040 34 352 0.0 1.6 0.00 0.00 0.00 56 1015.2
20260905171537 34 207 0.0 0.0 0.00 0.00 0.00 61 1015.3
20260905171033 34 231 3.2 3.2 0.00 0.00 0.00 59 1015.2
20260905170529 33 249 0.0 0.0 0.00 0.00 0.00 62 1015.3
20260905170024 33 197 0.0 0.0 0.00 0.00 0.00 66 1015.3
20260905165518 34 254 0.0 0.0 0.00 0.00 0.00 63 1015.4
20260905165014 33 306 0.0 0.0 0.00 0.00 0.00 64 1015.5
20260905164508 33 215 0.0 0.0 0.00 0.00 0.00 66 1015.7
20260905164003 33 215 0.0 0.0 0.00 0.00 0.00 66 1015.7
20260905163459 33 216 0.0 0.0 0.00 0.00 0.00 67 1015.9
20260905162955 33 216 0.0 0.0 0.00 0.00 0.00 67 1015.9
20260905162450 33 245 0.0 0.0 0.00 0.00 0.00 69 1015.9
20260905161944 33 87 0.0 0.0 0.00 0.00 0.00 70 1015.9
20260905161438 32 219 0.0 0.0 0.00 0.00 0.00 73 1016.0
20260905160936 32 219 0.0 0.0 0.00 0.00 0.00 73 1016.0
20260905160431 32 202 0.0 0.0 0.00 0.00 0.00 72 1016.1
20260905155930 32 293 0.0 0.0 0.00 0.00 0.00 67 1016.0
20260905155425 32 275 0.0 0.0 0.00 0.00 0.00 69 1016.3
20260905154923 31 226 0.0 0.0 0.00 0.00 0.00 75 1016.1
20260905154419 30 231 0.0 0.0 0.00 0.00 0.00 75 1016.2
20260905153915 30 231 0.0 0.0 0.00 0.00 0.00 75 1016.2
20260905153411 30 211 0.0 0.0 0.00 0.00 0.00 77 1016.4
20260905152910 30 220 0.0 0.0 0.00 0.00 0.00 76 1016.5
20260905152409 29 224 0.0 0.0 0.00 0.00 0.00 79 1016.6
20260905151905 30 204 0.0 0.0 0.00 0.00 0.00 81 1016.6
20260905151400 30 212 0.0 0.0 0.00 0.00 0.00 82 1016.4
20260905150855 28 231 0.0 0.0 0.00 0.00 0.00 80 1016.5
20260905150355 28 243 0.0 0.0 0.00 0.00 0.00 80 1016.7
20260905145852 28 203 0.0 0.0 0.00 0.00 0.00 83 1016.6
20260905145352 28 205 0.0 0.0 0.00 0.00 0.00 79 1016.7
20260905144846 28 256 0.0 0.0 0.00 0.00 0.00 83 1016.7
20260905144342 28 224 0.0 0.0 0.00 0.00 0.00 84 1016.5
20260905143840 28 224 0.0 0.0 0.00 0.00 0.00 83 1016.6
20260905143334 27 232 0.0 0.0 0.00 0.00 0.00 84 1016.7
20260905142834 27 236 0.0 0.0 0.00 0.00 0.00 86 1016.7
20260905142332 27 228 0.0 0.0 0.00 0.00 0.00 84 1016.8
20260905141829 27 224 0.0 0.0 0.00 0.00 0.00 86 1016.8
20260905141324 27 227 0.0 0.0 0.00 0.00 0.00 86 1016.9
20260905140820 26 204 0.0 0.0 0.00 0.00 0.00 87 1016.9
20260905140319 26 228 0.0 0.0 0.00 0.00 0.00 86 1016.8
20260905135818 26 229 0.0 0.0 0.00 0.00 0.00 88 1016.7
20260905135314 26 209 0.0 0.0 0.00 0.00 0.00 87 1017.0
20260905134809 26 208 0.0 0.0 0.00 0.00 0.00 87 1017.1
20260905134303 25 231 0.0 0.0 0.00 0.00 0.00 88 1017.1
20260905133803 25 223 0.0 0.0 0.00 0.00 0.00 93 1017.0
20260905133258 25 223 0.0 0.0 0.00 0.00 0.00 93 1017.0
20260905132757 25 227 0.0 0.0 0.00 0.00 0.00 93 1017.4
20260905132253 24 227 0.0 0.0 0.00 0.00 0.00 93 1017.1
20260905131747 23 231 0.0 0.0 0.00 0.00 0.00 94 1017.1
20260905131237 23 232 0.0 0.0 0.00 0.00 0.00 95 1017.3
20260905130732 23 232 0.0 0.0 0.00 0.00 0.00 95 1017.0
20260905130231 23 232 0.0 0.0 0.00 0.00 0.00 95 1017.3
20260905125727 23 232 0.0 0.0 0.00 0.00 0.00 95 1017.3
20260905125222 23 232 0.0 0.0 0.00 0.00 0.00 96 1017.3
20260905124718 22 232 0.0 0.0 0.00 0.00 0.00 96 1017.1
20260905124214 22 232 0.0 0.0 0.00 0.00 0.00 96 1017.3
20260905123714 22 230 0.0 0.0 0.00 0.00 0.00 96 1017.3